TimeCDT,TemperatureF,Dew PointF,Humidity,Sea Level PressureIn,VisibilityMPH,Wind Direction,Wind SpeedMPH,Gust SpeedMPH,PrecipitationIn,Events,Conditions,WindDirDegrees,DateUTC
12:15 AM,68.0,62.6,83,29.94,10.0,East,3.5,-,N/A,,Clear,100,2013-07-21 05:15:00
12:35 AM,68.0,62.6,83,29.93,10.0,East,3.5,-,N/A,,Clear,100,2013-07-21 05:35:00
12:55 AM,68.0,62.6,83,29.93,10.0,Calm,Calm,-,N/A,,Clear,0,2013-07-21 05:55:00
1:15 AM,64.4,62.6,94,29.92,10.0,ESE,4.6,-,N/A,,Clear,120,2013-07-21 06:15:00
1:35 AM,66.2,62.6,88,29.91,10.0,East,5.8,-,N/A,,Partly Cloudy,100,2013-07-21 06:35:00
1:55 AM,68.0,64.4,88,29.91,10.0,NNE,3.5,-,N/A,,Partly Cloudy,30,2013-07-21 06:55:00
2:15 AM,66.2,62.6,88,29.91,10.0,Calm,Calm,-,N/A,,Clear,0,2013-07-21 07:15:00
2:35 AM,64.4,62.6,94,29.90,10.0,ESE,3.5,-,N/A,,Clear,120,2013-07-21 07:35:00
2:55 AM,66.2,62.6,88,29.89,10.0,NE,3.5,-,N/A,,Clear,40,2013-07-21 07:55:00
3:15 AM,64.4,60.8,88,29.89,10.0,Calm,Calm,-,N/A,,Clear,0,2013-07-21 08:15:00
3:35 AM,62.6,60.8,94,29.90,10.0,Calm,Calm,-,N/A,,Clear,0,2013-07-21 08:35:00
3:55 AM,62.6,60.8,94,29.90,10.0,Calm,Calm,-,N/A,,Clear,0,2013-07-21 08:55:00
4:15 AM,62.6,60.8,94,29.89,10.0,Calm,Calm,-,N/A,,Clear,0,2013-07-21 09:15:00
4:35 AM,62.6,60.8,94,29.88,10.0,ESE,5.8,-,N/A,,Clear,110,2013-07-21 09:35:00
4:55 AM,62.6,60.8,94,29.87,10.0,East,4.6,-,N/A,,Clear,100,2013-07-21 09:55:00
5:15 AM,62.6,60.8,94,29.86,10.0,East,4.6,-,N/A,,Clear,100,2013-07-21 10:15:00
5:35 AM,62.6,60.8,94,29.85,10.0,East,5.8,-,N/A,,Clear,100,2013-07-21 10:35:00
5:55 AM,64.4,62.6,94,29.86,10.0,Calm,Calm,-,N/A,,Clear,0,2013-07-21 10:55:00
6:15 AM,66.2,62.6,88,29.84,10.0,East,8.1,-,N/A,,Clear,90,2013-07-21 11:15:00
6:35 AM,64.4,62.6,94,29.86,8.0,North,4.6,-,N/A,,Clear,360,2013-07-21 11:35:00
6:55 AM,64.4,62.6,94,29.87,8.0,North,5.8,-,N/A,,Clear,360,2013-07-21 11:55:00
7:15 AM,66.2,62.6,88,29.88,8.0,Calm,Calm,-,N/A,,Clear,0,2013-07-21 12:15:00
7:35 AM,66.2,62.6,88,29.89,8.0,Calm,Calm,-,N/A,,Partly Cloudy,0,2013-07-21 12:35:00
7:55 AM,68.0,64.4,88,29.89,9.0,Calm,Calm,-,N/A,,Clear,0,2013-07-21 12:55:00
8:15 AM,69.8,64.4,83,29.89,10.0,Calm,Calm,-,N/A,,Clear,0,2013-07-21 13:15:00
8:35 AM,71.6,64.4,78,29.88,9.0,Calm,Calm,-,N/A,,Clear,0,2013-07-21 13:35:00
8:55 AM,73.4,66.2,78,29.88,9.0,Calm,Calm,-,N/A,,Clear,0,2013-07-21 13:55:00
9:15 AM,75.2,66.2,73,29.89,10.0,Calm,Calm,-,N/A,,Clear,0,2013-07-21 14:15:00
9:35 AM,77.0,66.2,69,29.89,10.0,Calm,Calm,-,N/A,,Clear,0,2013-07-21 14:35:00
9:55 AM,77.0,68.0,74,29.89,10.0,Calm,Calm,-,N/A,,Clear,0,2013-07-21 14:55:00
10:15 AM,78.8,66.2,65,29.89,10.0,Variable,3.5,-,N/A,,Clear,0,2013-07-21 15:15:00
10:35 AM,78.8,68.0,69,29.89,10.0,Variable,3.5,-,N/A,,Clear,0,2013-07-21 15:35:00
10:55 AM,80.6,68.0,65,29.88,10.0,SSW,6.9,-,N/A,,Partly Cloudy,210,2013-07-21 15:55:00
11:15 AM,80.6,66.2,61,29.87,10.0,Variable,3.5,-,N/A,,Partly Cloudy,0,2013-07-21 16:15:00
11:35 AM,80.6,68.0,65,29.87,10.0,Variable,4.6,-,N/A,,Partly Cloudy,0,2013-07-21 16:35:00
11:55 AM,82.4,66.2,58,29.86,10.0,Variable,5.8,11.5,N/A,,Clear,0,2013-07-21 16:55:00
12:15 PM,82.4,68.0,62,29.86,9.0,SSW,9.2,15.0,N/A,,Partly Cloudy,210,2013-07-21 17:15:00
1:15 PM,82.4,68.0,62,29.85,10.0,WSW,8.1,-,N/A,,Mostly Cloudy,240,2013-07-21 18:15:00
1:35 PM,84.2,68.0,58,29.84,10.0,Calm,Calm,-,N/A,,Partly Cloudy,0,2013-07-21 18:35:00
1:55 PM,84.2,68.0,58,29.83,10.0,Calm,Calm,-,N/A,,Partly Cloudy,0,2013-07-21 18:55:00
2:15 PM,82.4,66.2,58,29.82,10.0,Calm,Calm,-,N/A,,Mostly Cloudy,0,2013-07-21 19:15:00
2:35 PM,82.4,68.0,62,29.82,10.0,NW,5.8,-,N/A,,Mostly Cloudy,310,2013-07-21 19:35:00
2:55 PM,84.2,66.2,55,29.81,10.0,Calm,Calm,-,N/A,,Mostly Cloudy,0,2013-07-21 19:55:00
3:15 PM,84.2,66.2,55,29.81,10.0,Calm,Calm,-,N/A,,Partly Cloudy,0,2013-07-21 20:15:00
3:35 PM,86.0,68.0,55,29.81,10.0,Calm,Calm,-,N/A,,Partly Cloudy,0,2013-07-21 20:35:00
3:55 PM,86.0,66.2,51,29.80,10.0,Variable,5.8,-,N/A,,Mostly Cloudy,0,2013-07-21 20:55:00
4:15 PM,87.8,66.2,49,29.80,10.0,Variable,5.8,-,N/A,,Partly Cloudy,0,2013-07-21 21:15:00
4:35 PM,86.0,64.4,48,29.79,10.0,SW,4.6,-,N/A,,Clear,230,2013-07-21 21:35:00
4:55 PM,86.0,68.0,55,29.80,10.0,SSW,5.8,-,N/A,,Partly Cloudy,200,2013-07-21 21:55:00
5:15 PM,84.2,66.2,55,29.79,10.0,Calm,Calm,-,N/A,,Clear,0,2013-07-21 22:15:00
5:35 PM,86.0,66.2,51,29.80,10.0,WSW,6.9,-,N/A,,Clear,240,2013-07-21 22:35:00
5:55 PM,80.6,66.2,61,29.80,10.0,ESE,10.4,20.7,N/A,,Partly Cloudy,120,2013-07-21 22:55:00
6:15 PM,78.8,66.2,65,29.80,9.0,SSE,9.2,17.3,N/A,,Scattered Clouds,150,2013-07-21 23:15:00
6:35 PM,80.6,68.0,65,29.80,10.0,South,15.0,-,N/A,,Partly Cloudy,170,2013-07-21 23:35:00
6:55 PM,78.8,66.2,65,29.80,10.0,SSE,10.4,19.6,N/A,,Clear,160,2013-07-21 23:55:00
7:15 PM,78.8,66.2,65,29.79,10.0,South,8.1,13.8,N/A,,Clear,190,2013-07-22 00:15:00
7:35 PM,78.8,66.2,65,29.79,10.0,South,9.2,-,N/A,,Clear,180,2013-07-22 00:35:00
7:55 PM,78.8,66.2,65,29.79,10.0,SW,3.5,-,N/A,,Clear,220,2013-07-22 00:55:00
8:15 PM,77.0,66.2,69,29.80,10.0,SE,4.6,-,N/A,,Clear,140,2013-07-22 01:15:00
8:35 PM,77.0,66.2,69,29.80,10.0,Calm,Calm,-,N/A,,Clear,0,2013-07-22 01:35:00
8:55 PM,75.2,66.2,73,29.81,10.0,SSE,3.5,-,N/A,,Clear,150,2013-07-22 01:55:00
9:15 PM,73.4,66.2,78,29.81,10.0,SE,3.5,-,N/A,,Clear,140,2013-07-22 02:15:00
9:35 PM,73.4,68.0,83,29.82,10.0,Calm,Calm,-,N/A,,Clear,0,2013-07-22 02:35:00
9:55 PM,73.4,68.0,83,29.83,10.0,Calm,Calm,-,N/A,,Clear,0,2013-07-22 02:55:00
10:15 PM,73.4,68.0,83,29.83,10.0,Calm,Calm,-,N/A,,Clear,0,2013-07-22 03:15:00
10:35 PM,73.4,68.0,83,29.83,10.0,SE,3.5,-,N/A,,Clear,130,2013-07-22 03:35:00
10:55 PM,71.6,68.0,88,29.83,10.0,SE,3.5,-,N/A,,Clear,130,2013-07-22 03:55:00
11:15 PM,71.6,68.0,88,29.83,10.0,SE,4.6,-,N/A,,Clear,140,2013-07-22 04:15:00
11:35 PM,73.4,68.0,83,29.83,10.0,SSE,5.8,-,N/A,,Clear,150,2013-07-22 04:35:00
11:55 PM,73.4,68.0,83,29.83,10.0,Calm,Calm,-,N/A,,Clear,0,2013-07-22 04:55:00